Weather History for KPLU - June, 2014

Change the Weather History Date:

Friday, June 13, 2014

  Actual Average (KTCM) Record (KTCM)
Temperature  
Mean Temperature 54 °F -  
Max Temperature 59 °F 67 °F 93 °F (2002)
Min Temperature 50 °F 47 °F 39 °F (1976)
Degree Days  
Heating Degree Days 10    
Growing Degree Days 4 (Base 50)    
Moisture  
Dew Point 50 °F    
Average Humidity 87    
Maximum Humidity 100    
Minimum Humidity 63    
Precipitation  
Precipitation 0.24 in - - ()
Sea Level Pressure  
Sea Level Pressure 30.00 in    
Wind  
Wind Speed 3 mph (SW)    
Max Wind Speed 12 mph    
Max Gust Speed 21 mph    
Visibility 9 miles    
Events Rain    
Averages and records for this station are not official NWS values.
T = Trace of Precipitation, MM = Missing Value Source: NWS Daily Summary

Daily Weather History Graph

Daily Weather History Graph

Search for Another Location

Airport or City:

Trip Planner

Search our weather history database for the weather conditions in past years. The results will help you decide how hot, cold, wet, or windy it might be!

Date:

Astronomy

Jun. 13, 2014 Rise Set
Actual Time 5:13 AM PDT 9:05 PM PDT
Civil Twilight 4:33 AM PDT 9:45 PM PDT
Nautical Twilight 3:38 AM PDT 10:39 PM PDT
Astronomical Twilight 2:17 AM PDT 12:01 AM PDT
Moon 9:34 PM PDT (6/13) 6:03 AM PDT (6/13)
Length of Visible Light 17h 12m
Length of Day
15h 52m
Waxing Gibbous, 99% of the Moon is Illuminated
Jun 13
Waxing Gibbous
Jun 19
Last Quarter
Jun 27
New
Jul 5
First Quarter
Jul 12
Full

Hourly Weather History & Observations

Time (PDT) Temp. Dew Point Humidity Pressure Visibility Wind Dir Wind Speed Gust Speed Precip Events Conditions
12:15 AM 53.6 °F 50.0 °F 88% 29.89 in 10.0 mi Calm Calm - N/A   Overcast
12:35 AM 53.6 °F 50.0 °F 88% 29.89 in 10.0 mi SSW 3.5 mph - N/A   Overcast
12:55 AM 53.6 °F 50.0 °F 88% 29.90 in 10.0 mi Calm Calm - N/A Rain Light Rain
1:15 AM 53.6 °F 51.8 °F 94% 29.90 in 10.0 mi Calm Calm - N/A Rain Light Rain
1:35 AM 51.8 °F 51.8 °F 100% 29.90 in 7.0 mi Calm Calm - 0.01 in Rain Light Rain
1:55 AM 51.8 °F 51.8 °F 100% 29.89 in 10.0 mi Calm Calm - 0.01 in Rain Light Rain
2:15 AM 51.8 °F 51.8 °F 100% 29.90 in 10.0 mi Calm Calm - N/A Rain Light Rain
2:35 AM 51.8 °F 51.8 °F 100% 29.89 in 8.0 mi Calm Calm - 0.01 in Rain Light Rain
2:55 AM 51.8 °F 51.8 °F 100% 29.89 in 9.0 mi Calm Calm - 0.02 in Rain Light Rain
3:15 AM 51.8 °F 51.8 °F 100% 29.90 in 8.0 mi SSW 4.6 mph - 0.01 in Rain Light Rain
3:35 AM 51.8 °F 51.8 °F 100% 29.90 in 5.0 mi SSW 3.5 mph - 0.03 in Rain Light Rain
3:55 AM 50.0 °F 50.0 °F 100% 29.90 in 5.0 mi South 4.6 mph - 0.05 in Rain Light Rain
4:15 AM 50.0 °F 50.0 °F 100% 29.90 in 5.0 mi SSW 3.5 mph - 0.02 in Rain Light Rain
4:35 AM 50.0 °F 50.0 °F 100% 29.90 in 5.0 mi SW 3.5 mph - 0.04 in Rain Light Rain
4:55 AM 50.0 °F 50.0 °F 100% 29.91 in 4.0 mi Calm Calm - 0.07 in Rain Light Rain
5:15 AM 50.0 °F 50.0 °F 100% 29.91 in 5.0 mi SSW 3.5 mph - 0.02 in Rain Light Rain
5:35 AM 50.0 °F 50.0 °F 100% 29.92 in 10.0 mi SSE 4.6 mph - 0.03 in Rain Light Rain
5:55 AM 50.0 °F 50.0 °F 100% 29.92 in 10.0 mi Calm Calm - 0.03 in Rain Light Rain
6:15 AM 51.8 °F 51.8 °F 100% 29.92 in 10.0 mi Calm Calm - N/A   Overcast
6:35 AM 51.8 °F 51.8 °F 100% 29.92 in 10.0 mi Calm Calm - N/A   Overcast
6:55 AM 51.8 °F 51.8 °F 100% 29.92 in 10.0 mi Calm Calm - N/A   Overcast
7:15 AM 51.8 °F 51.8 °F 100% 29.93 in 10.0 mi South 4.6 mph - N/A   Overcast
7:40 AM 51.8 °F 51.8 °F 100% 29.93 in 10.0 mi Calm Calm - N/A Rain Light Rain
7:55 AM 51.8 °F 51.8 °F 100% 29.93 in 8.0 mi South 8.1 mph - N/A Rain Light Rain
8:15 AM 51.8 °F 51.8 °F 100% 29.93 in 6.0 mi South 3.5 mph - 0.01 in Rain Light Rain
8:35 AM 53.6 °F 53.6 °F 100% 29.93 in 5.0 mi SSW 4.6 mph - 0.02 in Rain Light Rain
8:55 AM 53.6 °F 53.6 °F 100% 29.94 in 5.0 mi SW 3.5 mph - 0.03 in Rain Light Rain
9:15 AM 53.6 °F 53.6 °F 100% 29.94 in 5.0 mi SW 3.5 mph - 0.01 in Rain Light Rain
9:35 AM 53.6 °F 53.6 °F 100% 29.94 in 8.0 mi SSW 4.6 mph - 0.02 in Rain Light Rain
9:55 AM 53.6 °F 53.6 °F 100% 29.95 in 8.0 mi SW 3.5 mph - 0.02 in Rain Light Rain
10:15 AM 53.6 °F 53.6 °F 100% 29.95 in 7.0 mi SW 5.8 mph - N/A Rain Light Rain
10:35 AM 53.6 °F 53.6 °F 100% 29.95 in 9.0 mi Calm Calm - N/A Rain Light Rain
10:55 AM 53.6 °F 53.6 °F 100% 29.96 in 10.0 mi WSW 8.1 mph - N/A Rain Light Rain
11:15 AM 53.6 °F 53.6 °F 100% 29.97 in 10.0 mi WSW 9.2 mph - N/A Rain Light Rain
11:35 AM 53.6 °F 53.6 °F 100% 29.97 in 10.0 mi WSW 9.2 mph - 0.01 in Rain Light Rain
11:55 AM 53.6 °F 53.6 °F 100% 29.98 in 10.0 mi SW 5.8 mph - 0.01 in   Overcast
12:15 PM 53.6 °F 53.6 °F 100% 29.99 in 10.0 mi SW 4.6 mph - N/A   Overcast
12:35 PM 53.6 °F 53.6 °F 100% 30.00 in 10.0 mi SW 5.8 mph - N/A   Overcast
12:55 PM 53.6 °F 53.6 °F 100% 30.01 in 10.0 mi SW 5.8 mph - N/A   Overcast
1:15 PM 53.6 °F 53.6 °F 100% 30.01 in 10.0 mi SW 5.8 mph - N/A   Overcast
1:35 PM 55.4 °F 51.8 °F 88% 30.02 in 10.0 mi South 6.9 mph - N/A   Overcast
2:15 PM 55.4 °F 51.8 °F 88% 30.02 in 10.0 mi SSW 5.8 mph - N/A   Overcast
2:55 PM 57.2 °F 53.6 °F 88% 30.03 in 10.0 mi SSW 4.6 mph - N/A   Overcast
3:35 PM 57.2 °F 48.2 °F 72% 30.04 in 10.0 mi SW 10.4 mph 19.6 mph N/A   Overcast
3:55 PM 59.0 °F 50.0 °F 72% 30.05 in 10.0 mi SW 8.1 mph - N/A   Overcast
4:15 PM 59.0 °F 48.2 °F 67% 30.05 in 10.0 mi SW 8.1 mph - N/A   Overcast
4:35 PM 59.0 °F 48.2 °F 67% 30.06 in 10.0 mi WSW 8.1 mph - N/A   Overcast
4:55 PM 59.0 °F 46.4 °F 63% 30.07 in 10.0 mi SW 10.4 mph 20.7 mph N/A   Overcast
5:15 PM 59.0 °F 46.4 °F 63% 30.07 in 10.0 mi SW 6.9 mph 16.1 mph N/A   Overcast
5:35 PM 57.2 °F 46.4 °F 67% 30.07 in 10.0 mi SW 8.1 mph 16.1 mph N/A   Overcast
5:55 PM 59.0 °F 46.4 °F 63% 30.07 in 10.0 mi SW 5.8 mph 17.3 mph N/A   Overcast
6:15 PM 59.0 °F 46.4 °F 63% 30.07 in 10.0 mi SW 8.1 mph - N/A   Overcast
6:35 PM 59.0 °F 46.4 °F 63% 30.08 in 10.0 mi WSW 11.5 mph 17.3 mph N/A   Overcast
6:55 PM 59.0 °F 46.4 °F 63% 30.08 in 10.0 mi SW 5.8 mph - N/A   Overcast
7:15 PM 57.2 °F 44.6 °F 63% 30.09 in 10.0 mi WSW 9.2 mph 18.4 mph N/A   Overcast
7:35 PM 57.2 °F 46.4 °F 67% 30.09 in 10.0 mi SW 6.9 mph - N/A   Overcast
7:55 PM 57.2 °F 46.4 °F 67% 30.10 in 10.0 mi WSW 8.1 mph - N/A   Overcast
8:15 PM 57.2 °F 44.6 °F 63% 30.11 in 10.0 mi SW 8.1 mph - N/A   Overcast
8:35 PM 55.4 °F 44.6 °F 67% 30.11 in 10.0 mi WSW 9.2 mph - N/A   Overcast
8:55 PM 55.4 °F 44.6 °F 67% 30.12 in 10.0 mi SW 9.2 mph - N/A   Overcast
9:15 PM 55.4 °F 44.6 °F 67% 30.12 in 10.0 mi WSW 5.8 mph - N/A   Overcast
9:35 PM 55.4 °F 46.4 °F 72% 30.13 in 10.0 mi Calm Calm - N/A   Overcast
9:55 PM 55.4 °F 46.4 °F 72% 30.14 in 10.0 mi SW 5.8 mph - N/A   Overcast
10:15 PM 55.4 °F 46.4 °F 72% 30.14 in 10.0 mi WSW 6.9 mph - N/A   Overcast
10:35 PM 53.6 °F 46.4 °F 77% 30.15 in 10.0 mi SW 3.5 mph - N/A   Overcast
10:55 PM 53.6 °F 48.2 °F 82% 30.15 in 10.0 mi SW 4.6 mph - N/A   Overcast
11:15 PM 53.6 °F 46.4 °F 77% 30.15 in 10.0 mi SW 3.5 mph - N/A   Overcast
11:35 PM 53.6 °F 46.4 °F 77% 30.14 in 10.0 mi SW 3.5 mph - N/A   Overcast
11:55 PM 53.6 °F 48.2 °F 82% 30.15 in 10.0 mi Calm Calm - N/A   Overcast